Weather History for Omaha, NE

Change the Weather History Date:

Friday, July 19, 2013

  Actual Average Record
Temperature  
Mean Temperature 83 °F 77 °F  
Max Temperature 95 °F 88 °F 110 °F (1934)
Min Temperature 71 °F 67 °F 51 °F (1873)
Degree Days  
Heating Degree Days 0 0  
Month to date heating degree days 0 0  
Since 1 June heating degree days 16 17  
Since 1 July heating degree days 0 0  
Cooling Degree Days 18 12  
Month to date cooling degree days 267 224  
Year to date cooling degree days 598 536  
Since 1 June cooling degree days 502 454  
Growing Degree Days 34 (Base 50)    
Moisture  
Dew Point 64 °F    
Average Humidity 56    
Maximum Humidity 79    
Minimum Humidity 32    
Precipitation  
Precipitation T in 0.12 in 2.97 in (1890)
Month to date precipitation 0.35 2.36  
Year to date precipitation 19.43 17.82  
Snow  
Snow 0.00 in 0.00 in - ()
Month to date snowfall 0.0 0.0  
Since 1 July snowfall 0.0 0.0  
Snow Depth 0.00 in    
Sea Level Pressure  
Sea Level Pressure 29.89 in    
Wind  
Wind Speed 6 mph (West)    
Max Wind Speed 16 mph    
Max Gust Speed 24 mph    
Visibility 10 miles    
Events      
T = Trace of Precipitation, MM = Missing Value Source: NWS Daily Summary

Daily Weather History Graph

Daily Weather History Graph

Search for Another Location

Airport:

Trip Planner

Search our weather history database for the weather conditions in past years. The results will help you decide how hot, cold, wet, or windy it might be!

Date:

Astronomy

Jul. 19, 2013 Rise Set
Actual Time 6:07 AM CDT 8:52 PM CDT
Civil Twilight 5:34 AM CDT 9:24 PM CDT
Nautical Twilight 4:53 AM CDT 10:05 PM CDT
Astronomical Twilight 4:07 AM CDT 10:51 PM CDT
Moon 5:55 PM CDT (7/19) 2:49 AM CDT (7/19)
Length of Visible Light 15h 50m
Length of Day
14h 45m
Waxing Gibbous, 87% of the Moon is Illuminated
Jul 19
Waxing Gibbous
Jul 22
Full
Jul 29
Last Quarter
Aug 6
New
Aug 14
First Quarter

Hourly Weather History & Observations

Time (CDT) Temp. Heat Index Dew Point Humidity Pressure Visibility Wind Dir Wind Speed Gust Speed Precip Events Conditions
12:52 AM 86.0 °F 87.3 °F 64.0 °F 48% 29.91 in 10.0 mi SSW 12.7 mph 21.9 mph N/A   Clear
1:52 AM 84.9 °F 85.9 °F 63.0 °F 48% 29.89 in 10.0 mi SW 10.4 mph - N/A   Clear
2:52 AM 82.9 °F 84.0 °F 63.0 °F 51% 29.89 in 10.0 mi SSW 9.2 mph - N/A   Clear
3:52 AM 82.0 °F 83.1 °F 63.0 °F 52% 29.88 in 10.0 mi South 5.8 mph - N/A   Clear
4:52 AM 81.0 °F 82.2 °F 63.0 °F 54% 29.87 in 10.0 mi South 8.1 mph - N/A   Clear
5:52 AM 78.1 °F - 64.0 °F 62% 29.88 in 10.0 mi SSE 9.2 mph - N/A   Partly Cloudy
6:52 AM 81.0 °F 82.5 °F 64.0 °F 56% 29.88 in 10.0 mi South 8.1 mph - N/A   Scattered Clouds
7:52 AM 82.0 °F 83.8 °F 64.9 °F 56% 29.89 in 10.0 mi SSW 8.1 mph - N/A   Scattered Clouds
8:52 AM 82.0 °F 83.8 °F 64.9 °F 56% 29.91 in 10.0 mi WSW 8.1 mph - N/A   Mostly Cloudy
9:52 AM 81.0 °F 83.0 °F 66.0 °F 60% 29.91 in 10.0 mi WSW 6.9 mph - N/A   Mostly Cloudy
10:52 AM 82.9 °F 85.4 °F 66.9 °F 58% 29.91 in 10.0 mi West 3.5 mph - N/A   Mostly Cloudy
11:52 AM 87.1 °F 89.9 °F 66.9 °F 51% 29.92 in 10.0 mi WNW 5.8 mph - N/A   Mostly Cloudy
12:52 PM 88.0 °F 91.4 °F 68.0 °F 51% 29.90 in 10.0 mi West 3.5 mph - N/A   Mostly Cloudy
1:52 PM 90.0 °F 92.4 °F 66.0 °F 45% 29.89 in 10.0 mi WSW 4.6 mph - N/A   Mostly Cloudy
2:52 PM 90.0 °F 90.6 °F 63.0 °F 40% 29.88 in 10.0 mi Calm Calm - 0.00 in   Mostly Cloudy
3:52 PM 93.9 °F 93.2 °F 59.0 °F 31% 29.88 in 10.0 mi Variable 3.5 mph - N/A   Scattered Clouds
4:52 PM 93.0 °F 95.0 °F 64.9 °F 39% 29.86 in 10.0 mi North 5.8 mph - N/A   Scattered Clouds
5:52 PM 93.9 °F 94.8 °F 62.1 °F 35% 29.86 in 10.0 mi North 8.1 mph - N/A   Scattered Clouds
6:52 PM 89.1 °F 89.0 °F 61.0 °F 39% 29.85 in 10.0 mi North 6.9 mph - N/A   Scattered Clouds
7:52 PM 88.0 °F 89.3 °F 64.0 °F 45% 29.85 in 10.0 mi North 6.9 mph - N/A   Scattered Clouds
8:52 PM 81.0 °F 83.0 °F 66.0 °F 60% 29.86 in 10.0 mi North 4.6 mph - N/A   Scattered Clouds
9:52 PM 78.1 °F - 64.0 °F 62% 29.88 in 10.0 mi NNE 5.8 mph - N/A   Scattered Clouds
10:52 PM 73.0 °F - 66.0 °F 79% 29.90 in 10.0 mi North 5.8 mph - N/A   Mostly Cloudy
11:52 PM 72.0 °F - 64.9 °F 78% 29.91 in 10.0 mi Calm Calm - N/A   Mostly Cloudy